Powrót do katalogu

STARLINK-31370

AktywnyŁącznośćVLEO
NORAD 59520·PAYLOAD·🇺🇸 United States

Wystrzelony Apr 17, 2024 z Cape Canaveral Space Force Station

Loading…

Następne Przeloty (najbliższe 24 godziny)

TLE

ŚwieżeSource: CelesTrak SupGP

Epoka: Sep 14, 2026, 20:21 UTC

1 59520C 24073K   26257.84840278 -.00019592  00000+0 -70963-3 0  2572
2 59520  43.0032 329.9512 0001526 270.9715  54.0639 15.27588185    19

Śledź STARLINK-31370 w czasie rzeczywistym z AllMySat

Download on the App Store